This is the latest recevied weather packets stored in our database for station/object DL4MGC-10. If no packets are shown the sender has not sent any weather packets the latest 10 day(s).
| Time | Temp. | Humidity | Pressure | Rain* | Wind** | Luminosity | Snow |
|---|---|---|---|---|---|---|---|
| 1777732750 | 25.56° C | 32% | 1018.3 hPa | - | - | - | - |
| 1777731850 | 26.67° C | 32% | 1018.5 hPa | - | - | - | - |
| 1777730950 | 27.22° C | 32% | 1018.6 hPa | - | - | - | - |
| 1777730050 | 27.78° C | 33% | 1018.8 hPa | - | - | - | - |
| 1777729150 | 27.22° C | 34% | 1019.1 hPa | - | - | - | - |
| 1777728249 | 26.67° C | 33% | 1019.4 hPa | - | - | - | - |
| 1777727349 | 26.67° C | 33% | 1019.6 hPa | - | - | - | - |
| 1777726449 | 26.11° C | 34% | 1019.8 hPa | - | - | - | - |
| 1777725549 | 25.56° C | 34% | 1020 hPa | - | - | - | - |
| 1777724649 | 25.56° C | 36% | 1020.3 hPa | - | - | - | - |
| 1777723749 | 25° C | 35% | 1020.4 hPa | - | - | - | - |
| 1777722849 | 25.56° C | 35% | 1020.6 hPa | - | - | - | - |
| 1777721949 | 25° C | 35% | 1020.7 hPa | - | - | - | - |
| 1777721049 | 24.44° C | 40% | 1021 hPa | - | - | - | - |
| 1777720149 | 22.22° C | 41% | 1021.2 hPa | - | - | - | - |
| 1777719249 | 23.33° C | 42% | 1021.3 hPa | - | - | - | - |
| 1777718348 | 22.78° C | 42% | 1021.4 hPa | - | - | - | - |
| 1777717448 | 22.22° C | 44% | 1021.6 hPa | - | - | - | - |
| 1777716548 | 21.67° C | 47% | 1021.8 hPa | - | - | - | - |
| 1777715648 | 21.11° C | 52% | 1021.9 hPa | - | - | - | - |
| 1777714748 | 20.56° C | 51% | 1022.1 hPa | - | - | - | - |
| 1777713848 | 20.56° C | 52% | 1022.1 hPa | - | - | - | - |
| 1777712948 | 19.44° C | 52% | 1022.2 hPa | - | - | - | - |
| 1777712048 | 20° C | 56% | 1022.4 hPa | - | - | - | - |
| 1777711148 | 19.44° C | 55% | 1022.4 hPa | - | - | - | - |
* Rain since midnight (hover to see other rain measurements)
** Current wind speed in m/s (hover to see current wind gust speed)